North Adams, MA

12:15 AM EST on February 24, 2017 (GMT -0500)
Harriman And West

Weather History for KAQW - February, 2013

Change the Weather History Date:

Friday, February 15, 2013

  Actual Average Record
Temperature  
Mean Temperature 36 °F -  
Max Temperature 46 °F 33 °F 54 °F (2006)
Min Temperature 26 °F 15 °F -11 °F (2016)
Degree Days  
Heating Degree Days 29    
Moisture  
Dew Point 22 °F    
Average Humidity 56    
Maximum Humidity 78    
Minimum Humidity 37    
Precipitation  
Precipitation 0.00 in - - ()
Sea Level Pressure  
Sea Level Pressure 29.94 in    
Wind  
Wind Speed 4 mph (SW)    
Max Wind Speed 10 mph    
Max Gust Speed -    
Visibility 9 miles    
Events Snow    
Averages and records for this station are not official NWS values.
T = Trace of Precipitation, MM = Missing Value Source: NWS Daily Summary

Daily Weather History Graph

Daily Weather History Graph

Search for Another Location

Airport or City:

Trip Planner

Search our weather history database for the weather conditions in past years. The results will help you decide how hot, cold, wet, or windy it might be!

Date:

Astronomy

Feb. 15, 2013 Rise Set
Actual Time 6:49 AM EST 5:24 PM EST
Civil Twilight 6:20 AM EST 5:53 PM EST
Nautical Twilight 5:47 AM EST 6:26 PM EST
Astronomical Twilight 5:14 AM EST 6:59 PM EST
Moon 9:15 AM EST (2/15) 11:32 PM EST (2/15)
Length of Visible Light 11h 33m
Length of Day
10h 35m
Waxing Crescent, 30% of the Moon is Illuminated
Feb 15
Waxing Crescent
Feb 17
First Quarter
Feb 25
Full
Mar 4
Last Quarter
Mar 11
New

Hourly Weather History & Observations

Time (EST) Temp. Windchill Dew Point Humidity Pressure Visibility Wind Dir Wind Speed Gust Speed Precip Events Conditions
12:52 AM 26.1 °F - 18.0 °F 71% 29.95 in 9.0 mi Calm Calm - N/A   Overcast
1:52 AM 28.9 °F - 19.0 °F 67% 29.96 in 7.0 mi Calm Calm - 0.00 in   Overcast
2:19 AM 28.4 °F - 21.2 °F 74% 29.92 in 2.5 mi Calm Calm - 0.00 in Snow Light Snow
2:52 AM 28.9 °F 23.9 °F 23.0 °F 78% 29.94 in 3.0 mi ESE 4.6 mph - 0.00 in Snow Light Snow
3:52 AM 32.0 °F 24.8 °F 25.0 °F 75% 29.92 in 8.0 mi East 8.1 mph - 0.00 in   Overcast
4:52 AM 33.1 °F 26.1 °F 23.0 °F 66% 29.92 in 9.0 mi East 8.1 mph - N/A   Partly Cloudy
5:52 AM 33.1 °F 25.5 °F 21.9 °F 64% 29.94 in 9.0 mi ESE 9.2 mph - N/A   Partly Cloudy
6:52 AM 32.0 °F 25.6 °F 21.0 °F 64% 29.92 in 8.0 mi SSE 6.9 mph - N/A   Clear
7:52 AM 33.1 °F 28.7 °F 21.0 °F 61% 29.94 in 8.0 mi ESE 4.6 mph - N/A   Clear
8:52 AM 36.0 °F 33.3 °F 23.0 °F 59% 29.96 in 9.0 mi Variable 3.5 mph - N/A   Clear
9:52 AM 41.0 °F - 23.0 °F 49% 29.95 in 10.0 mi Calm Calm - N/A   Scattered Clouds
10:52 AM 44.1 °F - 21.9 °F 42% 29.94 in 10.0 mi Calm Calm - N/A   Mostly Cloudy
11:52 AM 45.0 °F 39.7 °F 21.9 °F 40% 29.92 in 10.0 mi WSW 10.4 mph - N/A   Scattered Clouds
12:52 PM 46.0 °F 41.0 °F 21.0 °F 37% 29.91 in 10.0 mi WSW 10.4 mph - N/A   Scattered Clouds
1:52 PM 46.9 °F - 21.9 °F 37% 29.90 in 10.0 mi WSW 10.4 mph - N/A   Partly Cloudy
2:52 PM 46.0 °F 42.5 °F 21.0 °F 37% 29.90 in 10.0 mi Variable 6.9 mph - N/A   Overcast
3:52 PM 45.0 °F 41.2 °F 21.9 °F 40% 29.91 in 10.0 mi NW 6.9 mph - N/A   Overcast
4:52 PM 42.1 °F 39.2 °F 19.9 °F 41% 29.93 in 10.0 mi Variable 4.6 mph - N/A   Overcast
5:52 PM 39.9 °F 37.8 °F 19.9 °F 45% 29.95 in 10.0 mi SSW 3.5 mph - N/A   Overcast
6:52 PM 37.9 °F 35.5 °F 21.9 °F 53% 29.95 in 10.0 mi SW 3.5 mph - N/A   Overcast
7:52 PM 35.1 °F 32.2 °F 25.0 °F 67% 29.95 in 10.0 mi WSW 3.5 mph - N/A   Overcast
8:52 PM 34.0 °F 29.8 °F 21.9 °F 61% 29.95 in 10.0 mi West 4.6 mph - N/A   Mostly Cloudy
9:52 PM 34.0 °F 31.0 °F 21.0 °F 59% 29.96 in 10.0 mi West 3.5 mph - N/A   Overcast
10:52 PM 34.0 °F 29.8 °F 19.9 °F 56% 29.96 in 10.0 mi West 4.6 mph - N/A   Mostly Cloudy
11:52 PM 34.0 °F 27.2 °F 21.9 °F 61% 30.00 in 10.0 mi West 8.1 mph - N/A   Overcast